QPF
0.05 0.07 0.07 0.06 0.05 0.04 0.05 0.05 0.06 0.05 0.04 0.04 0.04 0.03 0.04 0.05 0.04 0.04 0.04 0.04 0.03 0.02 0.03 0.04 0.04 0.04 0.04 0.04 0.05 0.05 0.05 0.05 0.04 0.03 0.03 0.03 0.04 0.03
0.04 0.05 0.06 0.07 0.06 0.05 0.05 0.05 0.05 0.05 0.04 0.04 0.04 0.03 0.02 0.04 0.05 0.04 0.04 0.04 0.04 0.04 0.03 0.03 0.03 0.05 0.04 0.04 0.05 0.05 0.05 0.06 0.06 0.03 0.02 0.03 0.03 0.03
0.04 0.05 0.05 0.07 0.07 0.06 0.05 0.04 0.04 0.04 0.04 0.03 0.03 0.03 0.03 0.02 0.03 0.05 0.06 0.06 0.06 0.05 0.05 0.05 0.04 0.05 0.06 0.04 0.04 0.04 0.04 0.05 0.07 0.05 0.03 0.03 0.03 0.03
0.03 0.04 0.04 0.06 0.07 0.07 0.06 0.05 0.04 0.04 0.03 0.03 0.03 0.04 0.04 0.03 0.04 0.04 0.06 0.08 0.07 0.06 0.06 0.06 0.06 0.06 0.07 0.07 0.05 0.04 0.03 0.03 0.05 0.05 0.03 0.02 0.02 0.02
0.03 0.03 0.03 0.04 0.05 0.06 0.07 0.06 0.04 0.04 0.04 0.04 0.03 0.04 0.04 0.03 0.04 0.04 0.04 0.05 0.06 0.08 0.09 0.08 0.07 0.07 0.07 0.08 0.08 0.05 0.04 0.04 0.04 0.05 0.04 0.02 0.01 0.02
0.05 0.05 0.04 0.04 0.04 0.05 0.06 0.06 0.05 0.05 0.04 0.04 0.04 0.04 0.04 0.03 0.05 0.05 0.06 0.06 0.07 0.08 0.09 0.10 0.09 0.08 0.07 0.07 0.08 0.08 0.06 0.06 0.05 0.05 0.05 0.04 0.03 0.02
0.06 0.06 0.06 0.07 0.09 0.08 0.07 0.07 0.07 0.06 0.06 0.06 0.06 0.07 0.06 0.05 0.05 0.06 0.06 0.07 0.06 0.06 0.08 0.08 0.08 0.08 0.07 0.07 0.06 0.07 0.07 0.07 0.08 0.08 0.07 0.05 0.04 0.04
0.05 0.05 0.05 0.05 0.05 0.06 0.06 0.05 0.06 0.07 0.08 0.08 0.06 0.06 0.06 0.05 0.05 0.05 0.06 0.06 0.05 0.05 0.07 0.08 0.07 0.09 0.09 0.08 0.09 0.08 0.07 0.06 0.07 0.08 0.09 0.08 0.06 0.05
0.03 0.03 0.02 0.02 0.04 0.05 0.06 0.06 0.05 0.05 0.05 0.06 0.05 0.05 0.06 0.06 0.07 0.06 0.05 0.06 0.06 0.05 0.04 0.05 0.06 0.06 0.06 0.06 0.09 0.10 0.08 0.06 0.05 0.05 0.06 0.07 0.07 0.07
0.03 0.03 0.03 0.03 0.04 0.03 0.04 0.04 0.05 0.07 0.07 0.06 0.05 0.05 0.05 0.05 0.06 0.06 0.05 0.06 0.05 0.04 0.03 0.04 0.04 0.05 0.06 0.06 0.07 0.08 0.09 0.08 0.05 0.04 0.05 0.05 0.06 0.07
0.03 0.03 0.04 0.04 0.04 0.03 0.03 0.03 0.03 0.04 0.04 0.03 0.03 0.03 0.03 0.03 0.04 0.05 0.04 0.04 0.04 0.04 0.03 0.03 0.03 0.03 0.04 0.04 0.05 0.06 0.07 0.08 0.06 0.05 0.04 0.05 0.05 0.05
0.03 0.03 0.04 0.04 0.03 0.03 0.03 0.03 0.03 0.04 0.04 0.03 0.02 0.02 0.02 0.02 0.02 0.03 0.04 0.04 0.04 0.05 0.04 0.03 0.03 0.03 0.03 0.03 0.02 0.03 0.05 0.07 0.06 0.05 0.04 0.04 0.05 0.05
0.03 0.03 0.04 0.04 0.04 0.03 0.02 0.02 0.02 0.02 0.03 0.03 0.02 0.02 0.02 0.02 0.02 0.02 0.03 0.04 0.04 0.04 0.03 0.02 0.02 0.03 0.03 0.02 0.02 0.02 0.02 0.03 0.05 0.04 0.04 0.03 0.04 0.04
0.03 0.03 0.04 0.04 0.03 0.02 0.02 0.02 0.01 0.02 0.02 0.03 0.02 0.02 0.02 0.02 0.02 0.02 0.02 0.03 0.03 0.04 0.04 0.03 0.03 0.03 0.02 0.02 0.02 0.02 0.01 0.01 0.02 0.03 0.03 0.03 0.03 0.03
0.04 0.03 0.03 0.03 0.03 0.02 0.02 0.02 0.02 0.02 0.03 0.04 0.03 0.03 0.02 0.02 0.02 0.02 0.03 0.03 0.03 0.03 0.03 0.03 0.04 0.04 0.04 0.02 0.03 0.02 0.01 0.01 0.02 0.02 0.02 0.03 0.02 0.02
0.03 0.02 0.03 0.03 0.02 0.01 0.01 0.02 0.02 0.02 0.03 0.03 0.03 0.03 0.02 0.03 0.03 0.04 0.04 0.04 0.04 0.03 0.03 0.02 0.03 0.04 0.03 0.03 0.03 0.02 0.02 0.02 0.03 0.02 0.02 0.03 0.02 0.02
0.02 0.02 0.03 0.03 0.03 0.01 0.01 0.01 0.02 0.02 0.03 0.03 0.04 0.04 0.03 0.03 0.04 0.04 0.04 0.04 0.04 0.04 0.03 0.03 0.02 0.03 0.03 0.04 0.03 0.03 0.03 0.03 0.03 0.03 0.03 0.03 0.03 0.03
0.03 0.03 0.03 0.03 0.03 0.02 0.02 0.02 0.02 0.02 0.02 0.03 0.04 0.03 0.03 0.03 0.03 0.03 0.03 0.03 0.04 0.04 0.04 0.03 0.03 0.02 0.02 0.02 0.02 0.03 0.03 0.04 0.04 0.04 0.06 0.06 0.04 0.04
0.03 0.04 0.04 0.04 0.04 0.04 0.04 0.03 0.04 0.03 0.03 0.03 0.04 0.03 0.03 0.02 0.02 0.02 0.03 0.03 0.04 0.03 0.03 0.03 0.03 0.04 0.03 0.03 0.02 0.02 0.04 0.04 0.04 0.04 0.06 0.06 0.06 0.05
0.02 0.03 0.03 0.04 0.04 0.04 0.05 0.05 0.04 0.03 0.03 0.04 0.04 0.04 0.03 0.03 0.03 0.03 0.03 0.02 0.02 0.02 0.02 0.03 0.04 0.04 0.05 0.04 0.03 0.03 0.03 0.05 0.04 0.04 0.04 0.05 0.06 0.05
0.02 0.02 0.02 0.03 0.03 0.03 0.04 0.03 0.03 0.03 0.03 0.03 0.02 0.02 0.02 0.02 0.02 0.02 0.02 0.01 0.01 0.01 0.02 0.03 0.03 0.04 0.04 0.04 0.03 0.02 0.03 0.04 0.04 0.03 0.04 0.06 0.07 0.05
0.01 0.01 0.01 0.01 0.02 0.02 0.02 0.02 0.02 0.02 0.03 0.03 0.02 0.02 0.02 0.02 0.02 0.02 0.01 0.01 0.02 0.02 0.03 0.03 0.03 0.03 0.04 0.03 0.02 0.02 0.02 0.03 0.05 0.04 0.04 0.05 0.05 0.04
0.01 0.01 0.01 0.01 0.01 0.01 0.01 0.01 0.01 0.03 0.03 0.03 0.03 0.03 0.02 0.02 0.02 0.02 0.02 0.02 0.02 0.02 0.02 0.02 0.03 0.03 0.03 0.03 0.02 0.02 0.03 0.04 0.04 0.05 0.05 0.06 0.05 0.04
MSLP
1018.74 1018.75 1018.76 1018.75 1018.70 1018.58 1018.37 1018.08 1017.71 1017.29 1016.86 1016.45 1016.09 1015.83 1015.67 1015.60 1015.61 1015.67 1015.74 1015.80 1015.80 1015.74 1015.61 1015.41 1015.17 1014.91 1014.65 1014.42 1014.24 1014.11 1014.03 1014.01 1014.02 1014.05 1014.11 1014.16 1014.22 1014.27
1018.47 1018.48 1018.50 1018.50 1018.46 1018.36 1018.18 1017.91 1017.57 1017.17 1016.74 1016.33 1015.96 1015.66 1015.45 1015.33 1015.28 1015.28 1015.31 1015.33 1015.32 1015.27 1015.17 1015.03 1014.85 1014.67 1014.49 1014.33 1014.21 1014.12 1014.08 1014.05 1014.05 1014.07 1014.08 1014.09 1014.10 1014.11
1018.12 1018.14 1018.17 1018.19 1018.18 1018.10 1017.95 1017.72 1017.41 1017.04 1016.64 1016.23 1015.85 1015.53 1015.27 1015.08 1014.95 1014.88 1014.84 1014.81 1014.77 1014.71 1014.63 1014.52 1014.41 1014.30 1014.20 1014.12 1014.07 1014.04 1014.03 1014.04 1014.04 1014.04 1014.02 1014.00 1013.97 1013.94
1017.76 1017.79 1017.83 1017.86 1017.86 1017.81 1017.69 1017.49 1017.23 1016.90 1016.53 1016.14 1015.76 1015.42 1015.11 1014.87 1014.67 1014.52 1014.40 1014.31 1014.22 1014.13 1014.04 1013.96 1013.88 1013.82 1013.78 1013.77 1013.78 1013.81 1013.85 1013.89 1013.92 1013.92 1013.91 1013.87 1013.81 1013.76
1017.43 1017.45 1017.48 1017.51 1017.52 1017.48 1017.38 1017.22 1016.99 1016.70 1016.37 1016.01 1015.65 1015.30 1014.98 1014.69 1014.44 1014.22 1014.04 1013.87 1013.73 1013.59 1013.48 1013.38 1013.31 1013.26 1013.25 1013.28 1013.33 1013.41 1013.50 1013.58 1013.65 1013.68 1013.69 1013.67 1013.62 1013.56
1017.13 1017.13 1017.15 1017.15 1017.14 1017.10 1017.01 1016.87 1016.67 1016.42 1016.13 1015.81 1015.47 1015.14 1014.82 1014.52 1014.24 1013.98 1013.75 1013.53 1013.32 1013.14 1012.97 1012.83 1012.72 1012.66 1012.64 1012.67 1012.74 1012.85 1012.97 1013.10 1013.22 1013.31 1013.37 1013.40 1013.38 1013.35
1016.84 1016.81 1016.79 1016.76 1016.73 1016.66 1016.56 1016.43 1016.25 1016.03 1015.77 1015.49 1015.19 1014.90 1014.60 1014.31 1014.03 1013.76 1013.50 1013.24 1012.99 1012.75 1012.52 1012.32 1012.15 1012.04 1011.97 1011.97 1012.03 1012.14 1012.29 1012.47 1012.64 1012.80 1012.93 1013.02 1013.07 1013.08
1016.52 1016.45 1016.38 1016.32 1016.24 1016.15 1016.03 1015.89 1015.71 1015.51 1015.28 1015.04 1014.79 1014.53 1014.27 1014.02 1013.76 1013.50 1013.23 1012.96 1012.67 1012.38 1012.10 1011.83 1011.59 1011.40 1011.27 1011.21 1011.23 1011.33 1011.49 1011.69 1011.92 1012.15 1012.35 1012.52 1012.64 1012.70
1016.10 1016.00 1015.90 1015.79 1015.68 1015.56 1015.42 1015.26 1015.08 1014.89 1014.69 1014.47 1014.25 1014.04 1013.82 1013.60 1013.38 1013.14 1012.89 1012.61 1012.31 1011.98 1011.65 1011.31 1011.00 1010.73 1010.52 1010.40 1010.37 1010.44 1010.59 1010.80 1011.06 1011.34 1011.62 1011.85 1012.03 1012.16
1015.58 1015.46 1015.33 1015.20 1015.06 1014.92 1014.76 1014.59 1014.40 1014.21 1014.01 1013.81 1013.61 1013.42 1013.23 1013.04 1012.85 1012.64 1012.40 1012.14 1011.83 1011.49 1011.12 1010.73 1010.36 1010.02 1009.75 1009.56 1009.47 1009.49 1009.61 1009.82 1010.09 1010.40 1010.70 1010.98 1011.21 1011.37
1014.95 1014.82 1014.69 1014.55 1014.41 1014.26 1014.09 1013.91 1013.72 1013.52 1013.31 1013.10 1012.90 1012.71 1012.53 1012.35 1012.17 1011.98 1011.76 1011.50 1011.20 1010.85 1010.47 1010.06 1009.65 1009.27 1008.94 1008.69 1008.55 1008.51 1008.59 1008.77 1009.02 1009.31 1009.62 1009.90 1010.14 1010.31
1014.24 1014.13 1014.01 1013.88 1013.75 1013.60 1013.44 1013.26 1013.06 1012.85 1012.62 1012.40 1012.17 1011.96 1011.76 1011.57 1011.39 1011.19 1010.97 1010.73 1010.43 1010.09 1009.71 1009.30 1008.88 1008.48 1008.12 1007.83 1007.64 1007.55 1007.57 1007.69 1007.89 1008.13 1008.40 1008.65 1008.86 1009.02
1013.52 1013.42 1013.33 1013.22 1013.11 1012.98 1012.82 1012.65 1012.44 1012.22 1011.97 1011.72 1011.46 1011.22 1010.98 1010.76 1010.55 1010.33 1010.11 1009.86 1009.58 1009.26 1008.89 1008.50 1008.09 1007.69 1007.32 1007.01 1006.78 1006.64 1006.60 1006.65 1006.76 1006.93 1007.11 1007.29 1007.44 1007.55
1012.83 1012.75 1012.66 1012.57 1012.48 1012.36 1012.22 1012.06 1011.85 1011.62 1011.36 1011.08 1010.79 1010.51 1010.23 1009.97 1009.73 1009.49 1009.25 1009.00 1008.73 1008.42 1008.09 1007.72 1007.34 1006.96 1006.60 1006.28 1006.02 1005.84 1005.73 1005.69 1005.71 1005.77 1005.85 1005.93 1006.00 1006.04
1012.20 1012.11 1012.03 1011.94 1011.85 1011.75 1011.62 1011.45 1011.26 1011.02 1010.76 1010.47 1010.16 1009.85 1009.55 1009.26 1008.99 1008.73 1008.48 1008.23 1007.96 1007.68 1007.37 1007.04 1006.69 1006.34 1005.99 1005.68 1005.40 1005.17 1005.00 1004.87 1004.79 1004.74 1004.71 1004.68 1004.65 1004.61
1011.63 1011.51 1011.41 1011.30 1011.20 1011.09 1010.96 1010.80 1010.62 1010.40 1010.15 1009.87 1009.57 1009.27 1008.96 1008.66 1008.38 1008.11 1007.85 1007.60 1007.34 1007.07 1006.79 1006.49 1006.17 1005.84 1005.52 1005.21 1004.91 1004.65 1004.42 1004.22 1004.04 1003.89 1003.75 1003.61 1003.49 1003.38
1011.10 1010.93 1010.77 1010.63 1010.49 1010.36 1010.22 1010.08 1009.91 1009.72 1009.51 1009.27 1009.01 1008.73 1008.46 1008.18 1007.91 1007.64 1007.39 1007.14 1006.89 1006.63 1006.36 1006.07 1005.77 1005.46 1005.15 1004.84 1004.53 1004.24 1003.96 1003.70 1003.45 1003.21 1002.98 1002.76 1002.56 1002.38
1010.56 1010.33 1010.10 1009.90 1009.72 1009.56 1009.41 1009.27 1009.14 1008.99 1008.83 1008.65 1008.45 1008.24 1008.01 1007.78 1007.54 1007.30 1007.06 1006.81 1006.56 1006.30 1006.03 1005.74 1005.45 1005.14 1004.82 1004.50 1004.18 1003.86 1003.55 1003.24 1002.94 1002.64 1002.35 1002.07 1001.82 1001.60
1009.98 1009.68 1009.39 1009.12 1008.89 1008.70 1008.54 1008.42 1008.31 1008.21 1008.11 1008.01 1007.89 1007.75 1007.59 1007.41 1007.21 1007.00 1006.77 1006.53 1006.27 1005.99 1005.70 1005.40 1005.08 1004.75 1004.42 1004.08 1003.74 1003.41 1003.07 1002.73 1002.40 1002.07 1001.75 1001.45 1001.17 1000.94
1009.34 1008.98 1008.63 1008.31 1008.04 1007.83 1007.67 1007.55 1007.48 1007.43 1007.39 1007.35 1007.30 1007.23 1007.13 1007.01 1006.85 1006.65 1006.43 1006.17 1005.89 1005.59 1005.27 1004.93 1004.58 1004.22 1003.85 1003.49 1003.13 1002.78 1002.43 1002.08 1001.73 1001.40 1001.07 1000.77 1000.49 1000.25
1008.62 1008.22 1007.83 1007.49 1007.20 1006.98 1006.82 1006.73 1006.68 1006.67 1006.68 1006.69 1006.69 1006.66 1006.60 1006.50 1006.36 1006.16 1005.93 1005.65 1005.34 1004.99 1004.63 1004.24 1003.85 1003.45 1003.06 1002.67 1002.28 1001.91 1001.55 1001.20 1000.86 1000.53 1000.21 999.92 999.65 999.42
1007.83 1007.41 1007.03 1006.69 1006.41 1006.19 1006.05 1005.97 1005.95 1005.96 1005.99 1006.02 1006.03 1006.02 1005.96 1005.85 1005.69 1005.48 1005.21 1004.90 1004.54 1004.16 1003.74 1003.32 1002.88 1002.45 1002.02 1001.61 1001.21 1000.82 1000.45 1000.10 999.76 999.44 999.13 998.85 998.60 998.39
1006.96 1006.57 1006.22 1005.91 1005.66 1005.48 1005.37 1005.31 1005.29 1005.30 1005.33 1005.34 1005.34 1005.29 1005.20 1005.05 1004.85 1004.59 1004.28 1003.92 1003.52 1003.09 1002.65 1002.19 1001.72 1001.27 1000.82 1000.39 999.97 999.58 999.20 998.85 998.50 998.18 997.88 997.60 997.35 997.14
Thickness
5647 5646 5646 5647 5647 5647 5647 5646 5643 5643 5647 5650 5650 5651 5650 5649 5647 5646 5646 5644 5643 5642 5642 5642 5642 5642 5642 5641 5641 5642 5642 5642 5642 5642 5642 5643 5644 5646
5640 5640 5640 5641 5640 5641 5641 5641 5640 5638 5639 5644 5644 5645 5643 5642 5640 5640 5640 5638 5637 5637 5637 5636 5636 5636 5636 5636 5636 5636 5636 5636 5637 5637 5637 5638 5639 5640
5635 5635 5634 5634 5634 5634 5635 5635 5634 5633 5632 5636 5638 5639 5636 5634 5634 5635 5635 5634 5635 5633 5632 5631 5631 5631 5631 5631 5631 5631 5631 5631 5632 5632 5632 5632 5633 5635
5630 5629 5629 5629 5628 5628 5627 5628 5628 5628 5627 5626 5629 5630 5629 5629 5629 5628 5631 5632 5632 5630 5628 5627 5626 5626 5626 5626 5626 5627 5627 5627 5627 5627 5627 5627 5629 5630
5626 5625 5624 5623 5622 5623 5621 5622 5622 5623 5622 5622 5624 5624 5624 5624 5623 5622 5624 5624 5626 5626 5624 5623 5623 5622 5622 5622 5622 5623 5622 5622 5622 5622 5622 5622 5623 5625
5622 5621 5620 5619 5618 5617 5617 5616 5617 5617 5617 5617 5619 5619 5618 5619 5617 5617 5617 5619 5620 5622 5620 5620 5619 5618 5618 5618 5618 5618 5618 5618 5618 5617 5617 5617 5618 5620
5618 5618 5617 5615 5612 5611 5612 5612 5611 5611 5612 5612 5612 5612 5612 5610 5611 5612 5612 5613 5614 5615 5616 5617 5617 5617 5616 5614 5614 5614 5613 5613 5613 5613 5613 5613 5614 5615
5614 5614 5613 5611 5608 5605 5604 5603 5603 5604 5605 5604 5605 5605 5604 5605 5605 5605 5606 5606 5607 5610 5609 5610 5612 5612 5613 5613 5612 5610 5609 5608 5607 5608 5608 5608 5609 5610
5610 5609 5609 5609 5605 5604 5601 5599 5598 5596 5595 5596 5598 5598 5599 5599 5598 5598 5597 5598 5599 5602 5600 5602 5605 5607 5608 5610 5607 5605 5603 5603 5603 5603 5603 5603 5604 5604
5606 5604 5603 5602 5601 5598 5597 5597 5595 5595 5593 5592 5592 5593 5593 5592 5591 5590 5591 5591 5592 5594 5595 5595 5598 5600 5603 5602 5599 5598 5598 5597 5597 5597 5598 5598 5598 5598
5602 5601 5599 5597 5593 5591 5592 5592 5592 5591 5589 5587 5585 5585 5584 5583 5583 5584 5586 5587 5588 5590 5591 5590 5592 5593 5595 5595 5594 5592 5591 5591 5591 5591 5591 5591 5591 5591
5599 5597 5592 5590 5586 5585 5587 5587 5586 5587 5586 5585 5582 5580 5580 5579 5577 5578 5581 5582 5584 5584 5585 5584 5585 5585 5585 5588 5589 5587 5586 5584 5584 5585 5585 5585 5584 5585
5597 5595 5591 5584 5581 5579 5578 5580 5579 5579 5581 5581 5581 5580 5578 5577 5577 5575 5575 5575 5576 5577 5579 5576 5577 5576 5576 5577 5580 5581 5581 5581 5580 5579 5579 5578 5578 5578
5591 5590 5586 5579 5576 5573 5573 5573 5572 5571 5576 5577 5576 5575 5574 5574 5573 5571 5570 5568 5567 5568 5569 5569 5569 5569 5568 5569 5571 5573 5574 5574 5574 5575 5575 5573 5571 5571
5585 5581 5577 5574 5572 5571 5569 5568 5567 5570 5571 5570 5570 5569 5568 5567 5565 5564 5563 5561 5561 5562 5563 5562 5562 5563 5563 5564 5565 5566 5566 5567 5567 5568 5568 5568 5568 5567
5580 5577 5573 5571 5569 5568 5568 5567 5566 5565 5564 5563 5563 5562 5561 5560 5559 5558 5557 5557 5557 5558 5557 5556 5555 5555 5556 5558 5559 5560 5560 5560 5561 5561 5561 5561 5562 5562
5576 5576 5575 5573 5571 5570 5568 5566 5564 5561 5559 5557 5556 5556 5556 5555 5554 5553 5551 5551 5551 5551 5552 5551 5551 5550 5550 5551 5552 5553 5553 5553 5553 5553 5552 5554 5555 5557
5569 5572 5571 5569 5568 5567 5564 5561 5559 5556 5554 5553 5552 5551 5550 5549 5549 5548 5547 5545 5546 5547 5546 5547 5546 5546 5546 5547 5544 5545 5545 5545 5546 5545 5546 5547 5548 5549
5568 5569 5567 5565 5563 5561 5559 5557 5555 5553 5551 5549 5548 5547 5546 5545 5544 5543 5542 5542 5541 5541 5541 5541 5542 5542 5542 5542 5541 5537 5538 5538 5538 5538 5539 5539 5540 5541
5569 5567 5564 5562 5560 5557 5555 5553 5552 5550 5547 5545 5544 5543 5542 5541 5540 5538 5537 5536 5536 5536 5536 5536 5536 5535 5535 5534 5534 5532 5529 5531 5532 5532 5533 5533 5533 5531
5567 5564 5562 5559 5557 5554 5551 5549 5547 5545 5543 5542 5540 5538 5537 5536 5536 5535 5533 5529 5529 5531 5530 5530 5530 5527 5528 5527 5528 5528 5527 5524 5525 5525 5526 5527 5527 5527
5564 5561 5559 5556 5553 5551 5548 5546 5545 5542 5540 5539 5537 5535 5534 5532 5531 5530 5529 5528 5527 5527 5526 5526 5525 5524 5524 5524 5525 5524 5523 5522 5519 5518 5517 5518 5520 5522
5560 5558 5556 5553 5550 5548 5546 5543 5541 5539 5536 5535 5533 5531 5530 5528 5527 5526 5525 5525 5524 5523 5522 5522 5522 5522 5522 5522 5520 5520 5519 5518 5517 5516 5515 5512 5511 5509